DW6963 Weather Reports


Display with metric or nautical units.
time (UTC)temp
F
wind
direction
speed
MPH
gust
MPH
rain 1hr
in
rain 24hr
in
rain mn
in
humidity
%
barometer
mb
20201031051518 37 45 2.0 5.0 0.00 0.01 0.00 78 1027.7
20201031051021 37 45 2.0 5.0 0.00 0.01 0.00 78 1027.8
20201031050520 37 44 2.0 5.0 0.00 0.01 0.00 78 1027.7
20201031050021 37 44 2.0 5.0 0.00 0.01 0.00 78 1027.6
20201031045523 37 44 2.0 4.0 0.00 0.01 0.00 78 1027.6
20201031045018 37 44 2.0 4.0 0.00 0.01 0.00 79 1027.6
20201031044528 37 44 2.0 3.0 0.00 0.01 0.00 78 1027.6
20201031044042 38 44 1.0 3.0 0.00 0.01 0.00 78 1027.6
20201031043535 38 42 2.0 5.0 0.00 0.01 0.00 78 1027.6
20201031043034 38 33 2.0 5.0 0.00 0.01 0.00 78 1027.6
20201031042520 38 24 2.0 4.0 0.00 0.01 0.00 78 1027.6
20201031042021 38 7 2.0 4.0 0.00 0.01 0.00 78 1027.6
20201031041524 38 353 2.0 4.0 0.00 0.01 0.00 79 1027.6
20201031041025 38 349 2.0 4.0 0.00 0.01 0.00 79 1027.5
20201031040527 38 348 1.0 4.0 0.00 0.01 0.00 80 1027.5
20201031040046 38 348 1.0 2.0 0.00 0.01 0.00 80 1027.5
20201031035524 38 348 0.0 2.0 0.00 0.01 0.01 80 1027.6
20201031035027 38 348 0.0 2.0 0.00 0.01 0.01 80 1027.7
20201031034523 38 347 0.0 2.0 0.00 0.01 0.01 80 1027.7
20201031034021 38 348 1.0 3.0 0.00 0.01 0.01 80 1027.7
20201031033520 38 348 1.0 3.0 0.00 0.01 0.01 81 1027.7
20201031033052 38 348 1.0 3.0 0.00 0.01 0.01 81 1027.7
20201031032521 38 348 1.0 3.0 0.00 0.01 0.01 82 1027.7
20201031032033 38 348 0.0 1.0 0.00 0.01 0.01 82 1027.6
20201031031529 38 347 0.0 2.0 0.00 0.01 0.01 82 1027.6
20201031031030 38 347 1.0 2.0 0.00 0.01 0.01 82 1027.5
20201031030523 38 347 0.0 2.0 0.00 0.01 0.01 82 1027.5
20201031030032 38 347 0.0 2.0 0.00 0.01 0.01 82 1027.4
20201031025548 38 347 1.0 2.0 0.00 0.01 0.01 82 1027.3
20201031025026 38 347 1.0 2.0 0.00 0.01 0.01 83 1027.2
20201031024544 38 348 1.0 2.0 0.00 0.01 0.01 83 1027.2
20201031024052 38 348 1.0 2.0 0.00 0.01 0.01 84 1027.2
20201031023519 38 348 1.0 2.0 0.00 0.01 0.01 85 1027.1
20201031023058 37 348 1.0 2.0 0.00 0.01 0.01 86 1027.1
20201031022524 37 347 0.0 2.0 0.00 0.01 0.01 86 1027.0
20201031022021 37 347 0.0 1.0 0.00 0.02 0.01 86 1027.0
20201031021525 37 0 0.0 0.0 0.00 0.02 0.01 86 1027.0
20201031021026 37 348 0.0 1.0 0.00 0.02 0.01 85 1027.0
20201031020519 37 348 0.0 1.0 0.00 0.02 0.01 85 1026.9
20201031020051 37 0 0.0 0.0 0.00 0.02 0.01 85 1026.8
20201031015520 36 0 0.0 0.0 0.00 0.02 0.01 85 1026.7
20201031015023 36 348 0.0 1.0 0.00 0.03 0.01 84 1026.6
20201031014522 36 348 0.0 1.0 0.00 0.03 0.01 84 1026.6
20201031014028 36 347 0.0 1.0 0.00 0.03 0.01 83 1026.6
20201031013523 36 0 0.0 0.0 0.00 0.03 0.01 82 1026.6
20201031013029 37 0 0.0 0.0 0.00 0.03 0.01 81 1026.5
20201031012528 37 0 0.0 0.0 0.00 0.03 0.01 80 1026.5
20201031012022 37 348 0.0 1.0 0.00 0.03 0.01 80 1026.5
20201031011524 38 348 1.0 2.0 0.00 0.03 0.01 80 1026.4
20201031011020 38 348 0.0 2.0 0.00 0.03 0.01 81 1026.3
20201031010528 37 347 0.0 1.0 0.00 0.03 0.01 80 1026.3
20201031010021 38 347 0.0 1.0 0.00 0.03 0.01 80 1026.2
20201031005518 38 347 0.0 1.0 0.00 0.03 0.01 79 1026.2
20201031005023 38 347 0.0 2.0 0.00 0.03 0.01 79 1026.2
20201031004548 38 348 1.0 2.0 0.00 0.03 0.01 79 1026.1
20201031004020 39 347 0.0 1.0 0.00 0.03 0.01 79 1026.1
20201031003550 39 0 0.0 0.0 0.00 0.03 0.01 79 1026.1
20201031003024 39 347 0.0 1.0 0.00 0.03 0.01 79 1026.1
20201031002533 39 348 0.0 1.0 0.00 0.03 0.01 78 1026.1
20201031002048 39 347 0.0 1.0 0.00 0.03 0.01 79 1026.1
20201031001543 39 348 1.0 1.0 0.00 0.03 0.01 79 1026.0
20201031001020 39 347 0.0 1.0 0.00 0.03 0.01 80 1025.9
20201031000522 39 0 0.0 0.0 0.00 0.03 0.01 79 1025.8
20201031000028 39 0 0.0 0.0 0.00 0.04 0.01 79 1025.9
20201030235535 39 0 0.0 0.0 0.00 0.04 0.01 79 1025.7
20201030235019 39 0 0.0 0.0 0.00 0.04 0.01 79 1025.6
20201030234524 40 0 0.0 0.0 0.00 0.04 0.01 79 1025.6
20201030234024 40 0 0.0 0.0 0.00 0.05 0.01 78 1025.5
20201030233520 40 0 0.0 0.0 0.00 0.05 0.01 78 1025.4
20201030233028 40 0 0.0 0.0 0.00 0.05 0.01 78 1025.3
20201030232520 41 348 0.0 1.0 0.00 0.05 0.01 78 1025.4
20201030232033 41 347 0.0 1.0 0.00 0.05 0.01 77 1025.3
20201030231526 41 348 0.0 1.0 0.00 0.05 0.01 77 1025.3
20201030231022 42 0 0.0 0.0 0.00 0.05 0.01 76 1025.2
20201030230518 42 0 0.0 0.0 0.00 0.05 0.01 76 1025.2
20201030230025 42 0 0.0 0.0 0.00 0.05 0.01 75 1025.2
20201030225518 42 0 0.0 0.0 0.00 0.06 0.01 74 1025.1
20201030225021 43 0 0.0 0.0 0.00 0.06 0.01 74 1025.1
20201030224524 43 348 0.0 2.0 0.00 0.06 0.01 72 1025.1
20201030224019 43 348 1.0 3.0 0.00 0.06 0.01 72 1025.0
20201030223519 43 348 1.0 3.0 0.00 0.06 0.01 72 1024.9
20201030223021 43 348 1.0 2.0 0.00 0.06 0.01 71 1024.9
20201030222537 44 347 0.0 2.0 0.00 0.06 0.01 71 1024.8
20201030222032 44 348 0.0 1.0 0.00 0.06 0.01 70 1024.8
20201030221523 44 347 1.0 2.0 0.00 0.06 0.01 69 1024.8
20201030221024 44 347 0.0 2.0 0.00 0.06 0.01 68 1024.8
20201030220523 44 348 0.0 2.0 0.00 0.06 0.01 68 1024.7
20201030220036 44 348 1.0 3.0 0.00 0.06 0.01 67 1024.7
20201030215523 45 348 1.0 3.0 0.00 0.06 0.01 67 1024.7
20201030215040 45 348 0.0 3.0 0.00 0.06 0.01 67 1024.7
20201030214546 45 348 0.0 3.0 0.00 0.06 0.01 68 1024.6
20201030214020 45 348 1.0 4.0 0.00 0.06 0.01 68 1024.5
20201030213536 45 347 2.0 4.0 0.00 0.06 0.01 68 1024.6
20201030213024 45 348 2.0 4.0 0.00 0.06 0.01 67 1024.5
20201030212525 45 354 2.0 4.0 0.00 0.06 0.01 66 1024.5
20201030212024 45 354 2.0 5.0 0.00 0.06 0.01 65 1024.4
20201030211520 46 344 2.0 7.0 0.00 0.06 0.01 65 1024.3
20201030211020 46 337 1.0 7.0 0.01 0.06 0.01 63 1024.3
20201030210526 46 324 1.0 3.0 0.01 0.06 0.01 63 1024.3
20201030210032 46 320 2.0 5.0 0.01 0.07 0.01 61 1024.2
20201030205535 47 311 2.0 5.0 0.01 0.07 0.01 60 1024.1
20201030205019 47 302 2.0 5.0 0.01 0.07 0.01 59 1023.9
20201030204521 47 289 2.0 9.0 0.01 0.07 0.01 61 1023.9
20201030204026 47 297 2.0 9.0 0.01 0.07 0.01 62 1023.9
20201030203522 47 349 3.0 7.0 0.01 0.08 0.01 62 1023.9
20201030203034 47 345 3.0 8.0 0.01 0.09 0.01 62 1023.7
20201030202521 47 324 3.0 8.0 0.01 0.09 0.01 62 1023.6
20201030202024 46 334 3.0 11.0 0.01 0.09 0.01 67 1023.5
20201030201523 46 352 4.0 11.0 0.01 0.09 0.01 66 1023.6
20201030201020 46 350 3.0 9.0 0.00 0.09 0.00 66 1023.5
20201030200521 46 301 3.0 8.0 0.00 0.09 0.00 65 1023.4
20201030200051 47 272 4.0 9.0 0.00 0.10 0.00 64 1023.5
20201030195518 46 277 4.0 9.0 0.00 0.11 0.00 67 1023.4
20201030195028 46 295 3.0 8.0 0.00 0.11 0.00 67 1023.3
20201030194528 46 284 3.0 8.0 0.00 0.11 0.00 68 1023.4
20201030194024 45 276 3.0 9.0 0.00 0.11 0.00 70 1023.5
20201030193521 45 294 3.0 9.0 0.00 0.11 0.00 70 1023.5
20201030193027 45 312 2.0 8.0 0.00 0.11 0.00 71 1023.6
20201030192520 45 303 2.0 10.0 0.00 0.11 0.00 73 1023.5
20201030192020 45 303 3.0 10.0 0.00 0.11 0.00 72 1023.6
20201030191525 45 314 2.0 7.0 0.00 0.11 0.00 73 1023.6
20201030191034 45 332 2.0 6.0 0.00 0.11 0.00 74 1023.5
20201030190536 45 334 3.0 9.0 0.00 0.11 0.00 74 1023.5
20201030190023 45 328 2.0 9.0 0.00 0.11 0.00 74 1023.5
20201030185523 45 331 2.0 6.0 0.00 0.11 0.00 75 1023.4
20201030185028 45 319 3.0 8.0 0.00 0.11 0.00 74 1023.5
20201030184522 45 303 2.0 8.0 0.00 0.11 0.00 74 1023.5
20201030184022 45 305 3.0 5.0 0.00 0.11 0.00 75 1023.4
20201030183523 45 342 4.0 11.0 0.00 0.11 0.00 74 1023.4
20201030183022 45 354 4.0 11.0 0.00 0.11 0.00 74 1023.3
20201030182532 46 346 3.0 10.0 0.00 0.11 0.00 73 1023.1
20201030182028 46 342 2.0 10.0 0.00 0.11 0.00 73 1023.1
20201030181531 46 332 3.0 8.0 0.00 0.11 0.00 74 1023.0
20201030181023 46 347 3.0 8.0 0.00 0.11 0.00 75 1023.0
20201030180524 45 353 3.0 6.0 0.00 0.11 0.00 78 1023.2
20201030180034 45 344 4.0 8.0 0.00 0.11 0.00 76 1023.3
20201030175543 45 353 4.0 9.0 0.00 0.11 0.00 75 1023.3
20201030175024 46 332 4.0 10.0 0.00 0.11 0.00 73 1023.3
20201030174532 46 287 4.0 10.0 0.00 0.11 0.00 66 1023.3
20201030174030 47 284 4.0 9.0 0.00 0.11 0.00 68 1023.3
20201030173524 46 286 4.0 11.0 0.00 0.11 0.00 71 1023.2
20201030173033 46 293 4.0 11.0 0.00 0.11 0.00 70 1023.2
20201030172520 45 303 3.0 10.0 0.00 0.11 0.00 74 1023.4
20201030172030 45 324 3.0 9.0 0.00 0.11 0.00 74 1023.4
20201030171522 45 341 3.0 11.0 0.00 0.11 0.00 74 1023.4
20201030171024 45 331 3.0 11.0 0.00 0.12 0.00 75 1023.3
20201030170529 45 296 3.0 9.0 0.00 0.12 0.00 78 1023.2
20201030170037 44 296 3.0 9.0 0.00 0.12 0.00 77 1023.1
20201030165521 44 321 3.0 8.0 0.00 0.12 0.00 78 1023.2
20201030165019 45 325 2.0 8.0 0.00 0.12 0.00 77 1023.2
20201030164523 45 322 2.0 8.0 0.00 0.13 0.00 78 1023.2
20201030164028 45 317 3.0 9.0 0.00 0.13 0.00 79 1023.2
20201030163525 45 331 4.0 10.0 0.00 0.14 0.00 81 1023.2
20201030163021 45 332 3.0 10.0 0.00 0.15 0.00 83 1023.2
20201030162535 44 315 3.0 8.0 0.00 0.15 0.00 84 1023.2
20201030162023 44 329 2.0 8.0 0.00 0.16 0.00 85 1023.1
20201030161526 43 5 2.0 5.0 0.00 0.16 0.00 86 1023.1
20201030161025 42 10 3.0 8.0 0.00 0.17 0.00 85 1023.1
20201030160523 42 3 4.0 9.0 0.00 0.18 0.00 86 1023.0
20201030160037 42 356 5.0 9.0 0.00 0.18 0.00 85 1023.0
20201030155520 42 358 5.0 11.0 0.00 0.19 0.00 85 1022.8
20201030155023 42 8 6.0 11.0 0.00 0.20 0.00 84 1022.9
20201030154527 43 7 5.0 11.0 0.00 0.22 0.00 84 1022.8
20201030154028 43 334 4.0 11.0 0.00 0.23 0.00 84 1022.8
20201030153552 43 298 3.0 10.0 0.00 0.23 0.00 84 1022.5
20201030153030 43 288 2.0 7.0 0.00 0.24 0.00 84 1022.4
20201030152523 43 284 2.0 7.0 0.00 0.24 0.00 83 1022.3
20201030152030 43 284 2.0 6.0 0.00 0.26 0.00 82 1022.1
20201030151534 43 284 2.0 4.0 0.00 0.27 0.00 82 1022.1
20201030151024 44 305 2.0 8.0 0.00 0.28 0.00 82 1022.0
20201030150519 44 345 3.0 8.0 0.00 0.29 0.00 82 1021.9
20201030150048 44 359 3.0 8.0 0.00 0.30 0.00 83 1021.9
20201030145520 44 356 3.0 6.0 0.00 0.32 0.00 83 1021.9
20201030145029 43 354 2.0 8.0 0.00 0.33 0.00 82 1021.9
20201030144524 43 343 2.0 8.0 0.00 0.34 0.00 82 1021.8
20201030144022 43 333 3.0 6.0 0.00 0.36 0.00 82 1021.7
20201030143518 43 340 3.0 6.0 0.00 0.36 0.00 82 1021.6
20201030143022 43 344 3.0 10.0 0.00 0.38 0.00 82 1021.5
20201030142520 43 334 3.0 10.0 0.00 0.38 0.00 82 1021.4
20201030142036 43 332 3.0 9.0 0.00 0.39 0.00 82 1021.4
20201030141522 43 336 3.0 9.0 0.00 0.39 0.00 81 1021.4
20201030141027 44 313 3.0 9.0 0.00 0.40 0.00 81 1021.3
20201030140524 44 291 3.0 9.0 0.00 0.42 0.00 80 1021.2
20201030140035 44 287 3.0 10.0 0.00 0.42 0.00 80 1021.1
20201030135524 45 305 3.0 10.0 0.00 0.43 0.00 81 1021.0
20201030135030 44 329 3.0 10.0 0.00 0.44 0.00 83 1021.0
20201030134531 44 320 2.0 7.0 0.00 0.45 0.00 83 1020.9
20201030134018 44 306 2.0 7.0 0.00 0.46 0.00 84 1020.8
20201030133519 43 330 3.0 10.0 0.00 0.48 0.00 84 1020.8
20201030133023 43 346 3.0 10.0 0.00 0.49 0.00 84 1020.7
20201030132518 43 357 2.0 8.0 0.00 0.49 0.00 86 1020.6
20201030132022 42 340 3.0 8.0 0.00 0.50 0.00 86 1020.5
20201030131534 42 319 2.0 8.0 0.00 0.50 0.00 87 1020.4
20201030131023 42 312 1.0 5.0 0.00 0.51 0.00 88 1020.1
20201030130521 42 326 2.0 7.0 0.00 0.52 0.00 88 1020.0
20201030130024 41 329 2.0 7.0 0.00 0.54 0.00 88 1019.8
20201030125523 41 324 2.0 6.0 0.00 0.55 0.00 89 1019.6
20201030125026 41 324 1.0 6.0 0.00 0.56 0.00 89 1019.5
20201030124535 40 321 1.0 4.0 0.00 0.56 0.00 89 1019.3
20201030124031 40 321 1.0 4.0 0.00 0.57 0.00 89 1019.2
20201030123521 40 320 0.0 4.0 0.00 0.57 0.00 88 1019.1
20201030123036 40 320 0.0 4.0 0.00 0.58 0.00 88 1019.0
20201030122528 40 320 0.0 2.0 0.00 0.58 0.00 88 1019.0
20201030122019 40 321 1.0 5.0 0.00 0.59 0.00 88 1018.9
20201030121520 40 321 0.0 5.0 0.00 0.59 0.00 88 1018.8
20201030121023 40 322 1.0 5.0 0.00 0.60 0.00 87 1018.6
20201030120521 40 322 1.0 5.0 0.00 0.60 0.00 87 1018.5
20201030120038 40 324 0.0 2.0 0.00 0.61 0.00 87 1018.4
20201030115525 40 324 0.0 2.0 0.00 0.62 0.00 87 1018.3
20201030115024 41 324 1.0 3.0 0.00 0.63 0.00 87 1018.3
20201030114523 41 324 1.0 5.0 0.00 0.64 0.00 87 1018.2
20201030114024 41 323 1.0 5.0 0.00 0.66 0.00 86 1018.1
20201030113521 42 332 2.0 6.0 0.00 0.67 0.00 87 1018.0
20201030113031 42 327 3.0 9.0 0.00 0.69 0.00 87 1017.9
20201030112517 42 321 3.0 9.0 0.00 0.71 0.00 87 1017.9
20201030112024 42 316 2.0 8.0 0.00 0.72 0.00 88 1017.8
20201030111525 42 294 1.0 8.0 0.00 0.73 0.00 88 1017.7
20201030111018 42 311 2.0 8.0 0.00 0.74 0.00 88 1017.6
20201030110519 42 319 2.0 6.0 0.00 0.76 0.00 88 1017.5
20201030110031 42 315 3.0 9.0 0.00 0.78 0.00 88 1017.5
20201030105521 42 310 3.0 9.0 0.00 0.79 0.00 89 1017.5
20201030105024 42 299 2.0 7.0 0.00 0.81 0.00 89 1017.4
20201030104546 42 311 2.0 8.0 0.00 0.84 0.00 89 1017.3
20201030104024 42 322 2.0 10.0 0.00 0.85 0.00 89 1017.3
20201030103540 42 342 2.0 10.0 0.00 0.86 0.00 89 1017.1
20201030103026 42 345 2.0 8.0 0.00 0.86 0.00 89 1016.8
20201030102518 42 325 2.0 8.0 0.00 0.88 0.00 90 1016.6
20201030102019 42 341 3.0 10.0 0.00 0.90 0.00 90 1016.6
20201030101538 42 358 3.0 10.0 0.00 0.92 0.00 90 1016.5
20201030101021 42 350 3.0 8.0 0.00 0.94 0.00 90 1016.3
20201030100524 43 338 3.0 9.0 0.00 0.95 0.00 91 1016.2
20201030100020 43 337 4.0 9.0 0.00 0.96 0.00 91 1016.1
20201030095518 43 333 4.0 10.0 0.00 0.97 0.00 91 1016.0
20201030095021 43 317 4.0 10.0 0.00 1.00 0.00 91 1015.9
20201030094520 43 301 3.0 9.0 0.00 1.01 0.00 91 1015.8
20201030094021 43 301 3.0 8.0 0.00 1.04 0.00 91 1015.8
20201030093518 43 299 3.0 9.0 0.00 1.06 0.00 91 1015.7
20201030093023 43 297 3.0 9.0 0.00 1.09 0.00 91 1015.6
20201030092518 43 297 3.0 9.0 0.00 1.11 0.00 91 1015.5
20201030092030 43 300 3.0 7.0 0.00 1.13 0.00 91 1015.4
20201030091519 43 303 3.0 8.0 0.00 1.15 0.00 91 1015.3
20201030091031 43 303 3.0 9.0 0.00 1.16 0.00 91 1015.3
20201030090522 43 296 3.0 9.0 0.00 1.17 0.00 91 1015.3
20201030090032 43 295 3.0 8.0 0.00 1.18 0.00 91 1015.0
20201030085520 43 315 3.0 9.0 0.00 1.18 0.00 91 1014.9
20201030085038 43 316 2.0 9.0 0.00 1.18 0.00 91 1014.9
20201030084519 43 294 2.0 12.0 0.00 1.18 0.00 91 1014.8
20201030084021 43 295 3.0 12.0 0.00 1.18 0.00 91 1014.9
20201030083525 43 305 3.0 9.0 0.00 1.18 0.00 91 1014.9
20201030083036 43 317 3.0 12.0 0.00 1.18 0.00 91 1014.8
20201030082518 43 319 3.0 12.0 0.00 1.18 0.00 91 1014.7
20201030082020 43 320 3.0 9.0 0.00 1.18 0.00 91 1014.8
20201030081519 43 315 4.0 9.0 0.00 1.18 0.00 91 1014.6
20201030081028 44 315 3.0 9.0 0.00 1.19 0.00 91 1014.5
20201030080519 44 324 3.0 9.0 0.00 1.19 0.00 91 1014.4
20201030080048 44 316 3.0 10.0 0.00 1.19 0.00 91 1014.3
20201030075518 44 312 4.0 11.0 0.00 1.19 0.00 91 1014.3
20201030075031 44 313 4.0 11.0 0.00 1.19 0.00 91 1014.2
20201030074527 44 321 3.0 11.0 0.00 1.19 0.00 91 1014.2
20201030074025 44 329 2.0 7.0 0.00 1.19 0.00 91 1014.1
20201030073520 44 331 2.0 11.0 0.00 1.19 0.00 91 1014.2
20201030073025 44 330 2.0 11.0 0.00 1.19 0.00 91 1014.2
20201030072518 44 328 2.0 6.0 0.00 1.19 0.00 91 1014.0
20201030072021 44 324 3.0 11.0 0.00 1.20 0.00 91 1013.9
20201030071524 44 311 3.0 11.0 0.00 1.20 0.00 91 1013.9
20201030071025 44 302 3.0 9.0 0.00 1.20 0.00 91 1013.9
20201030070538 44 293 3.0 10.0 0.00 1.21 0.00 91 1013.7
20201030070040 44 287 3.0 10.0 0.00 1.21 0.00 91 1013.5
20201030065525 44 315 3.0 10.0 0.00 1.21 0.00 91 1013.4
20201030065019 44 328 3.0 10.0 0.00 1.21 0.00 91 1013.4
20201030064531 44 321 3.0 9.0 0.00 1.21 0.00 91 1013.3
20201030064030 44 317 2.0 8.0 0.00 1.21 0.00 91 1013.2
20201030063522 44 303 3.0 8.0 0.00 1.21 0.00 91 1013.1
20201030063023 44 299 4.0 8.0 0.00 1.21 0.00 91 1013.1
20201030062523 44 292 4.0 8.0 0.00 1.21 0.00 91 1013.1
20201030062024 44 290 3.0 8.0 0.00 1.22 0.00 91 1013.0
20201030061526 44 298 3.0 8.0 0.00 1.22 0.00 91 1012.9
20201030061018 44 304 2.0 8.0 0.00 1.22 0.00 91 1012.8
20201030060536 44 302 2.0 8.0 0.00 1.22 0.00 91 1012.7
20201030060050 44 299 2.0 7.0 0.00 1.22 0.00 91 1012.6
20201030055520 44 294 2.0 7.0 0.00 1.22 0.00 91 1012.6
20201030055019 44 293 2.0 7.0 0.00 1.23 0.00 91 1012.4
20201030054533 44 294 2.0 9.0 0.00 1.23 0.00 91 1012.4
20201030054040 45 304 2.0 9.0 0.00 1.23 0.00 91 1012.3
20201030053519 45 320 3.0 8.0 0.00 1.24 0.00 91 1012.3
20201030053053 45 320 3.0 8.0 0.00 1.24 0.00 91 1012.3
20201030052518 45 307 3.0 9.0 0.00 1.24 0.00 91 1012.4
20201030052025 45 312 3.0 9.0 0.00 1.25 0.00 91 1012.3